This is the latest recevied weather packets stored in our database for station/object W1REE. If no packets are shown the sender has not sent any weather packets the latest 10 day(s).
| Time | Temp. | Humidity | Pressure | Rain* | Wind** | Luminosity | Snow |
|---|---|---|---|---|---|---|---|
| 1777952014 | 10° C | 61% | 1013.7 hPa | 0 mm | - | 0 W/m² | - |
| 1777951712 | 10° C | 63% | 1013.7 hPa | 0 mm | - | 0 W/m² | - |
| 1777951408 | 10° C | 62% | 1013.5 hPa | 0 mm | - | 0 W/m² | - |
| 1777951105 | 10° C | 62% | 1013.5 hPa | 0 mm | - | 0 W/m² | - |
| 1777950802 | 10° C | 60% | 1013.4 hPa | 0 mm | - | 0 W/m² | - |
| 1777950499 | 10° C | 62% | 1013.5 hPa | 0 mm | - | 0 W/m² | - |
| 1777950195 | 10° C | 61% | 1013.3 hPa | 0 mm | - | 0 W/m² | - |
| 1777949890 | 10° C | 62% | 1013 hPa | 0 mm | - | 0 W/m² | - |
| 1777949589 | 10.56° C | 62% | 1012.9 hPa | 0 mm | - | 0 W/m² | - |
| 1777949287 | 10.56° C | 61% | 1013.1 hPa | 0 mm | - | 0 W/m² | - |
| 1777948984 | 10.56° C | 59% | 1013.3 hPa | 0 mm | - | 0 W/m² | - |
| 1777948681 | 11.11° C | 57% | 1013.3 hPa | 0 mm | - | 0 W/m² | - |
| 1777948378 | 11.11° C | 57% | 1013.3 hPa | 0 mm | - | 0 W/m² | - |
| 1777948075 | 11.11° C | 58% | 1013.3 hPa | 0 mm | - | 0 W/m² | - |
| 1777947772 | 11.11° C | 57% | 1013.3 hPa | 0 mm | - | 0 W/m² | - |
| 1777947469 | 11.67° C | 55% | 1013.4 hPa | 0 mm | - | 0 W/m² | - |
| 1777947166 | 11.67° C | 54% | 1012.9 hPa | 0 mm | - | 0 W/m² | - |
| 1777946861 | 11.67° C | 54% | 1013.3 hPa | 0 mm | - | 0 W/m² | - |
| 1777946557 | 11.67° C | 54% | 1013 hPa | 0 mm | - | 1 W/m² | - |
| 1777946255 | 11.11° C | 56% | 1013.4 hPa | 0 mm | - | 1 W/m² | - |
| 1777945951 | 11.67° C | 57% | 1013.5 hPa | 0 mm | - | 2 W/m² | - |
| 1777945648 | 11.67° C | 55% | 1013.1 hPa | 0 mm | - | 4 W/m² | - |
| 1777945346 | 11.11° C | 55% | 1012.9 hPa | 0 mm | - | 7 W/m² | - |
| 1777945042 | 10.56° C | 58% | 1012.7 hPa | 0 mm | - | 11 W/m² | - |
| 1777944739 | 10.56° C | 61% | 1012.7 hPa | 0 mm | - | 16 W/m² | - |
* Rain latest hour (hover to see other rain measurements)
** Current wind speed in m/s (hover to see current wind gust speed)